CZ-4 DEB, 26454

Orbit data source: Space-Track

CZ-4 DEB, 26454 is space debris in SSO originally from a launch on Thu, 14 Oct 1999 UTC launched from the Taiyaun Space Center, China (TSC). Debris objects in space refer to the collection of defunct objects orbiting the Earth. Examples of debris include non-operational satellites, rocket bodies, and fragments generated from explosions, collisions, or faulty payload assembly.

Loading next visibility...
Identifier
26454, 1999-057KZ
Orbit
SSO
Country
Flag of CNCN / PRC
Related business
Manufacturer
Unknown
Mission
Spacecraft
Bus & Motor
Unknown
Mass
Unknown
Launch date (UTC)
1999-10-14 (26 years ago)
Launch vehicle
Unknown
Launch site
Taiyaun Space Center, China (TSC)
Object type
Payload
Rocket body
Debris
Shape & HBR
Unknown shape, 0.1 m
Radar Cross Section
Small (<0.1 m²)

Expand to show TLE details & history
Last TLE update: 9 hours ago

TLE from 9 hours ago
0 CZ-4 DEB
1 26454U 99057KZ  25300.84304618  .00007304  00000-0  11401-2 0  9998
2 26454  98.3489 357.3805 0056674 122.4761 301.1592 14.72085596337399
Epoch: 2025-10-27T20:13Z
TLE epoch observation values (Epoch: 2025-10-27T20:13:59.189Z)
Latitude
62.00163°
Longitude
1.5107°
Altitude
644.57 km
Speed
7.553 km/s
True Right ascension
22h 45m 47s
True Declination
61° 51' 23"
Sunlit
Object was in full shadow at epoch
Visualization orbit readout
Latitude
Unknown
Longitude
Unknown
Altitude
Unknown
Speed
Unknown
Apparent Right ascension
Unknown
Apparent Declination
Unknown
Sunlit
N/A
Visualization observer readout
Local Sidereal Time
00:12:57
Azimuth
Unknown
Elevation
Unknown
Doppler factor
Unknown
Orbital elements
Apogee altitude
691.33 km
Perigee altitude
611.65 km
Semi-major axis
7,029.627 km
Eccentricity
0.00567
Inclination
98.3489°
RAAN
357.3805°
Arg. of periapsis
122.4761°
True anomaly
300.60142°
Mean anomaly
301.1592°
Eccentric anomaly
300.88051°
Mean motion
3.68252 °/min
Orbital period
97.76 mins
BSTAR
0.0011401
Loading maneuver chart data...
Computing Atmospheric mass density...
Loading historical data...
Loading historical data...
Loading historical data...
Loading historical data...
Loading historical data...
Loading historical data...
Loading historical data...

Documentation

Showing up to 5 results
|